[[{"header":{"parameterUnit":"m.s-1","parameterCategory":1,"la1":30.2991,"la2":30.254,"lo1":-89.0895,"lo2":-89.0444,"dy":0.0017,"dx":0.0017,"nx":28,"ny":28,"refTime":"2025-08-20T03:00:00:Z","depth":0,"parameterNumber":2,"parameterNumberName":"U-component_of_WINDS"},"data":[0,0,0,0,0,0,0,0,0,0,0,0,0,0,0,0,0,0,0,0,0,0,0,0,0,0,0,0,0,0,0,0,0,0,0,0,0,0,0,0,0,0,0,0,0,0,0,0,0,0,0,0,0,0,0,0,0,0,1.7671,1.767,0,1.7549,1.7548,1.7546,1.7383,1.738,1.7377,1.7374,1.7257,1.7256,1.7256,0,0,0,0,0,0,0,0,0,0,0,0,0,1.7765,1.7764,1.7671,1.767,1.7668,1.7549,1.7548,1.7546,1.7383,1.738,1.7376,1.7373,1.7257,1.7257,1.7256,0,0,0,0,0,0,0,0,0,0,0,0,0,1.7692,1.7764,1.7671,1.7572,1.7562,1.755,1.7548,1.7546,1.7384,1.738,1.7375,1.7372,1.7257,1.7257,1.7256,1.7333,0,0,1.7253,1.7253,0,0,0,0,0,0,0,0,1.7696,1.7689,1.7588,1.7579,1.7568,1.7477,1.7537,1.7475,1.7385,1.7452,1.7374,1.737,1.7334,1.7326,1.7313,1.7327,1.7322,1.7253,1.7253,1.7252,1.7252,0,0,0,0,0,0,0,1.7702,1.7693,1.7623,1.7587,1.7574,1.7534,1.752,1.7525,1.7418,1.7446,1.7433,1.7421,1.7328,1.7314,1.7309,1.7321,1.7253,1.7252,1.7252,1.7251,1.7386,1.739,0,0,0,0,0,0,1.7721,1.7698,1.7627,1.7619,1.7623,1.7536,1.7519,1.751,1.7417,1.7399,1.7424,1.7414,1.7318,1.731,1.7304,1.7383,1.7252,1.7251,1.7251,1.7382,1.7387,1.7391,0,0,0,0,0,0,1.7723,1.7716,1.7632,1.7655,1.7641,1.7539,1.753,1.751,1.7496,1.7401,1.7382,1.743,1.7314,1.7305,1.7325,1.7377,1.7251,1.725,1.7377,1.7384,1.7389,1.7546,0,0,0,0,0,0,1.7727,1.7718,1.7746,1.7657,1.7641,1.7654,1.7533,1.7511,1.7494,1.7479,1.7401,1.7384,1.731,1.7327,1.7324,1.7374,1.725,1.7372,1.738,1.7387,1.7536,1.7557,1.7575,0,0,0,0,0,1.7731,1.7798,1.7748,1.7741,1.7673,1.7658,1.7648,1.7559,1.7499,1.7526,1.7464,1.7387,1.7373,1.7331,1.7326,1.7376,1.7368,1.7378,1.7387,1.7527,1.7553,1.7575,0,0,0,0,0,0,1.7899,1.7785,1.7728,1.7769,1.7724,1.763,1.7661,1.7591,1.7564,1.7551,1.7444,1.7428,1.7459,1.742,1.7375,1.7443,1.7359,1.7367,1.7467,1.7491,1.751,1.7518,1.7249,0,0,0,0,0,1.7941,1.7936,1.7837,1.7882,1.7862,1.7766,1.7756,1.769,1.7641,1.7622,1.7561,1.7518,1.7502,1.7495,1.7476,1.753,1.7509,1.7562,1.7582,1.7598,1.7606,1.7627,1.7648,1.7422,1.7421,1.7421,0,0,1.8027,1.7964,1.7968,1.7914,1.7871,1.7868,1.7751,1.7755,1.7751,1.7623,1.7635,1.759,1.7534,1.7569,1.7582,1.7537,1.7664,1.761,1.7624,1.7623,1.7639,1.766,1.7679,1.7428,1.7427,1.7426,0,0,1.8182,1.8135,1.8164,1.8123,1.8058,1.7993,1.8001,1.7916,1.788,1.789,1.7792,1.7787,1.7765,1.7727,1.7705,1.784,1.7767,1.7838,1.7939,1.7961,1.7978,1.7994,1.8038,1.8056,1.7847,1.7847,1.7847,0,1.8298,1.8288,1.819,1.8196,1.8174,1.8054,1.8082,1.8048,1.7982,1.797,1.792,1.7884,1.7839,1.7861,1.7893,1.7881,1.7885,1.7845,1.7984,1.7998,1.8011,1.8051,1.8069,1.7856,1.7855,1.7854,1.7853,0,1.8431,1.8426,1.8458,1.8392,1.8374,1.8393,1.8296,1.829,1.8225,1.8166,1.8176,1.8116,1.808,1.8081,1.8021,1.8094,1.8067,1.8003,1.7915,1.8042,1.8079,1.8094,1.7868,1.7865,1.7862,1.786,0,0,1.869,1.8566,1.8579,1.8545,1.8463,1.8458,1.847,1.8431,1.8426,1.8385,1.839,1.8371,1.8308,1.8284,1.8218,1.8237,1.8342,1.8168,1.8165,1.8199,1.8414,1.8461,1.8481,1.8293,1.8296,1.8298,1.8417,0,1.8826,1.8837,1.8746,1.8782,1.8773,1.8657,1.8667,1.8618,1.8562,1.8547,1.8486,1.8472,1.8393,1.8376,1.839,1.8327,1.8383,1.8317,1.8296,1.8297,1.8311,1.85,1.8551,1.8667,1.8431,1.8434,1.8436,0,1.8987,1.8949,1.8982,1.8893,1.8886,1.8897,1.8851,1.884,1.8781,1.8738,1.8708,1.863,1.8635,1.8553,1.8557,1.8514,1.85,1.8467,1.8469,1.8462,1.8372,1.8495,1.8702,1.8718,1.8458,1.8456,1.8455,0,1.9167,1.9125,1.9137,1.9113,1.9011,1.902,1.8978,1.8915,1.8896,1.8858,1.8844,1.8808,1.8788,1.8762,1.8677,1.8626,1.8689,1.8601,1.8653,1.8655,1.867,1.8669,1.8874,1.8667,1.8667,1.8666,1.8666,0,1.9326,1.935,1.9215,1.9223,1.9245,1.9141,1.9167,1.9114,1.9058,1.9053,1.8953,1.8951,1.8839,1.8824,1.8758,1.8768,1.8762,1.8726,1.8708,1.8733,1.8737,1.8721,1.871,1.8671,1.867,1.8669,1.8668,0,1.953,1.9441,1.9446,1.9348,1.9324,1.9344,1.926,1.9263,1.9199,1.9194,1.9187,1.9087,1.9064,1.8976,1.8934,1.8888,1.8919,1.8886,1.8938,1.8926,1.898,1.8975,1.9179,1.9198,1.8984,1.8986,1.8988,0,1.9636,1.9651,1.9552,1.954,1.9502,1.9485,1.9463,1.9361,1.9343,1.9274,1.9285,1.9253,1.9221,1.919,1.9114,1.908,1.9043,1.9116,1.9037,1.906,1.9039,1.9037,1.9036,1.9133,1.9136,1.9138,1.914,0,1.9832,1.9786,1.9758,1.9714,1.969,1.9651,1.9606,1.9602,1.9488,1.9473,1.9446,1.9421,1.9374,1.9343,1.9295,1.9253,1.9177,1.9166,1.9175,1.9199,1.9227,1.9208,1.8981,1.9161,1.9159,1.9158,1.9156,1.9156,1.9987,1.9993,1.9922,1.9893,1.9848,1.9807,1.9803,1.9737,1.9712,1.9663,1.9605,1.9584,1.9521,1.9448,1.9412,1.9394,1.9352,1.9367,1.937,1.9375,1.9385,1.9233,1.9386,1.9385,1.9384,1.9384,1.9383,0,2.0174,2.0122,2.0096,2.0034,2.0011,1.9939,1.9884,1.987,1.9852,1.9798,1.9768,1.9735,1.9703,1.9624,1.9584,1.9585,1.9549,1.9578,1.9575,1.9565,1.9427,1.942,1.9607,1.9607,1.9607,1.9607,1.9607,1.9607,2.0268,2.0272,2.0217,2.0197,2.0145,2.0121,2.0095,2.0057,2.0012,1.9979,1.995,1.9898,1.9833,1.9787,1.9754,1.9732,1.972,1.976,1.9726,1.9597,1.9576,1.9556,1.9549,1.9759,1.9759,1.9865,1.9866,1.9867]},{"header":{"parameterUnit":"m.s-1","parameterCategory":1,"la1":30.2991,"la2":30.254,"lo1":-89.0895,"lo2":-89.0444,"dy":0.0017,"dx":0.0017,"nx":28,"ny":28,"refTime":"2025-08-20T03:00:00:Z","depth":0,"parameterNumber":3,"parameterNumberName":"V-component_of_WINDS"},"data":[0,0,0,0,0,0,0,0,0,0,0,0,0,0,0,0,0,0,0,0,0,0,0,0,0,0,0,0,0,0,0,0,0,0,0,0,0,0,0,0,0,0,0,0,0,0,0,0,0,0,0,0,0,0,0,0,0,0,2.8832,2.8832,0,2.8841,2.8841,2.8842,2.8795,2.8794,2.8792,2.8791,2.8799,2.88,2.8802,0,0,0,0,0,0,0,0,0,0,0,0,0,2.8773,2.8774,2.8832,2.8832,2.8833,2.8841,2.8841,2.8842,2.8795,2.8794,2.8792,2.879,2.8799,2.88,2.8802,0,0,0,0,0,0,0,0,0,0,0,0,0,2.8792,2.8774,2.8832,2.8811,2.8809,2.8841,2.8841,2.8842,2.8796,2.8794,2.8792,2.879,2.8798,2.88,2.8802,2.8856,0,0,2.8809,2.881,0,0,0,0,0,0,0,0,2.8791,2.8794,2.8814,2.8812,2.881,2.8815,2.8823,2.8846,2.8796,2.8801,2.8791,2.8789,2.8806,2.8807,2.8813,2.8856,2.8857,2.8809,2.8811,2.8811,2.8812,0,0,0,0,0,0,0,2.8789,2.8793,2.8836,2.8814,2.8812,2.8799,2.88,2.8827,2.8814,2.88,2.8797,2.8798,2.8805,2.8811,2.8813,2.8857,2.8809,2.8811,2.8812,2.8813,2.8941,2.8943,0,0,0,0,0,0,2.8791,2.8793,2.8836,2.8836,2.8795,2.8802,2.8803,2.8815,2.8814,2.8812,2.88,2.8796,2.8809,2.8811,2.8813,2.8873,2.8811,2.8814,2.8815,2.8939,2.8942,2.8944,0,0,0,0,0,0,2.879,2.8796,2.8835,2.8813,2.8818,2.8805,2.882,2.8817,2.8823,2.8814,2.8811,2.881,2.8807,2.881,2.8845,2.8873,2.8815,2.8817,2.8937,2.894,2.8943,2.8996,0,0,0,0,0,0,2.8789,2.8796,2.8816,2.8814,2.8819,2.8868,2.8822,2.8818,2.8827,2.8822,2.8822,2.882,2.8806,2.8842,2.8847,2.8875,2.8818,2.8934,2.8938,2.8942,2.8991,2.9,2.9008,0,0,0,0,0,2.8787,2.8831,2.8818,2.8823,2.8845,2.8869,2.8872,2.8855,2.883,2.885,2.8844,2.882,2.887,2.8846,2.8852,2.888,2.8932,2.8937,2.8942,2.8988,2.8999,2.9008,0,0,0,0,0,0,2.8837,2.8831,2.8816,2.8861,2.8866,2.8862,2.8886,2.8867,2.8879,2.8874,2.8852,2.8852,2.889,2.8889,2.8863,2.8931,2.8897,2.8903,2.893,2.894,2.8948,2.8946,2.882,0,0,0,0,0,2.8854,2.8875,2.8868,2.8909,2.8912,2.8899,2.8909,2.8895,2.89,2.8901,2.8898,2.8902,2.8918,2.893,2.8944,2.8992,2.899,2.9014,2.9023,2.903,2.9034,2.9056,2.9066,2.8959,2.8959,2.8959,0,0,2.8888,2.8887,2.8902,2.8919,2.8921,2.8942,2.8901,2.8926,2.894,2.8905,2.8937,2.8935,2.8938,2.8979,2.8996,2.8979,2.9064,2.9036,2.9041,2.9042,2.9062,2.9072,2.9081,2.8963,2.8962,2.8961,0,0,2.896,2.8963,2.8995,2.8998,2.9002,2.8993,2.9001,2.8999,2.8996,2.9028,2.9001,2.9018,2.9048,2.905,2.9056,2.9127,2.9105,2.9133,2.9175,2.9197,2.9206,2.9213,2.9236,2.9245,2.9138,2.9138,2.9139,0,2.9002,2.9033,2.9015,2.904,2.9047,2.9017,2.9048,2.9052,2.9061,2.9066,2.9047,2.9081,2.9082,2.9121,2.9138,2.9145,2.9151,2.9132,2.9206,2.9213,2.922,2.9241,2.925,2.9142,2.9141,2.9141,2.9141,0,2.9082,2.9104,2.913,2.9138,2.9148,2.9177,2.9162,2.9175,2.9161,2.9153,2.9185,2.9184,2.9197,2.9206,2.9193,2.9243,2.9232,2.921,2.9174,2.9233,2.9253,2.9261,2.9146,2.9145,2.9144,2.9143,0,0,2.9185,2.9182,2.9192,2.9194,2.9196,2.9212,2.9239,2.9251,2.9261,2.9268,2.9288,2.9314,2.9292,2.9299,2.9285,2.9305,2.9358,2.928,2.928,2.9292,2.9411,2.9425,2.9435,2.9345,2.9346,2.9347,2.9409,0,2.9253,2.9298,2.9282,2.9328,2.9346,2.9317,2.934,2.9343,2.9337,2.9351,2.9344,2.9361,2.9334,2.9337,2.9355,2.9348,2.9381,2.9344,2.9361,2.9362,2.9358,2.9446,2.9462,2.952,2.9417,2.9419,2.942,0,2.9338,2.9348,2.9395,2.9391,2.9398,2.9419,2.9428,2.9443,2.9445,2.9439,2.9445,2.9427,2.9452,2.9418,2.9451,2.9425,2.9432,2.943,2.9431,2.943,2.9392,2.9444,2.9539,2.9546,2.9432,2.9431,2.943,0,2.9405,2.943,2.946,2.9464,2.9461,2.9476,2.9475,2.9475,2.9483,2.9491,2.9496,2.9507,2.9512,2.9521,2.9506,2.9484,2.954,2.9506,2.9534,2.9534,2.9544,2.9543,2.9638,2.9554,2.9554,2.9554,2.9553,0,2.9481,2.951,2.949,2.9508,2.954,2.9521,2.9552,2.9549,2.9549,2.9565,2.9542,2.9558,2.9538,2.9552,2.9541,2.9568,2.9571,2.9566,2.9562,2.9566,2.9566,2.9568,2.9562,2.9556,2.9555,2.9555,2.9555,0,2.9559,2.9547,2.9578,2.9573,2.9572,2.9595,2.959,2.9606,2.9598,2.9619,2.9623,2.9611,2.9626,2.9612,2.9627,2.9619,2.9654,2.9646,2.9653,2.965,2.9677,2.9674,2.9774,2.9785,2.9697,2.9697,2.9698,0,2.9607,2.9628,2.9625,2.9634,2.9635,2.965,2.9658,2.964,2.9649,2.9652,2.9668,2.9681,2.969,2.9715,2.9707,2.9717,2.9707,2.9742,2.9708,2.9711,2.9704,2.9702,2.9702,2.9747,2.9749,2.9749,2.975,0,2.9691,2.9684,2.9696,2.9705,2.9714,2.9721,2.9726,2.9735,2.9717,2.9727,2.9742,2.9749,2.9763,2.9776,2.9784,2.9782,2.9763,2.9761,2.9767,2.9771,2.9773,2.9769,2.9668,2.9758,2.9757,2.9757,2.9756,2.9756,2.9754,2.977,2.977,2.9783,2.9785,2.9789,2.9804,2.9797,2.9809,2.9819,2.9808,2.9826,2.9826,2.9834,2.9835,2.9848,2.9833,2.9844,2.9846,2.9848,2.985,2.9773,2.985,2.985,2.985,2.9849,2.9849,0,2.9834,2.9832,2.9845,2.9851,2.9861,2.9843,2.9847,2.9856,2.9872,2.9874,2.9883,2.9899,2.9911,2.9904,2.9913,2.9925,2.9916,2.9927,2.9925,2.9924,2.9864,2.9856,2.9934,2.9934,2.9934,2.9934,2.9934,2.9934,2.9877,2.9903,2.9896,2.9922,2.992,2.9936,2.994,2.9943,2.9945,2.9963,2.9973,2.9968,2.9966,2.9975,2.9985,2.9982,2.9986,3.0,2.9994,2.9937,2.9929,2.9921,2.9913,3.0002,3.0002,3.0053,3.0053,3.0054]}]]